Preview of NWS' New Version of Forecast
This preview is not operational and should not be used for support decisions.

Regional Weather Roundup (RWR)

Issued by National Weather Service (NWS)

                            
000
ASUS46 KSEW 221110
RWRWA 

WASHINGTON REGIONAL WEATHER ROUNDUP
NATIONAL WEATHER SERVICE SEATTLE WA
400 AM PDT MON JUL 22 2019

NOTE:"FAIR" INDICATES FEW OR NO CLOUDS BELOW 12,000 FEET WITH NO 
SIGNIFICANT WEATHER AND/OR OBSTRUCTIONS TO VISIBILITY.

WAZ507-509-555>559-221200-
SEATTLE, TACOMA, EVERETT, AND VICINITY
  
CITY           SKY/WX    TMP DP  RH WIND       PRES   REMARKS
EVERETT        CLEAR     60  44  55 NE5       29.99S                  
BOEING FIELD   CLEAR     62  49  62 CALM      29.99R                  
RENTON         CLEAR     61  53  75 CALM      29.98S                  
SEATAC AIRPORT PTCLDY    61  50  67 S3        29.99S                  
JBLM-MCCHORD   PTCLDY    60  52  75 CALM      29.99S                  
PUYALLUP       FAIR      55  52  88 CALM      30.00R                  
BREMERTON      CLEAR     51  49  92 CALM      29.99S                  
JBLM-FT LEWIS  PTCLDY    59  53  80 S5        29.98S                  
TACOMA NARROWS CLEAR     57  51  80 W3        30.00R                  
$$
 
WAZ001-503-506-510-514-515-221200-
NORTH INTERIOR
  
CITY           SKY/WX    TMP DP  RH WIND       PRES   REMARKS
BELLINGHAM     CLEAR     61  50  67 S7        29.94S                  
FRIDAY HARBOR  CLEAR     50  48  93 CALM      29.96R                  
EASTSOUND      CLEAR     59  54  82 S9        29.93R                  
PORT ANGELES   CLEAR     57  47  69 W8        29.98S                  
EDIZ HOOK      FAIR      56  49  77 W13G20    29.97S                  
PORT TOWNSEND  FAIR      50  48  93 CALM      29.97S                  
NAS WHIDBEY    PTCLDY    59  52  77 SW7       30.00S                  
ARLINGTON        N/A     52  50  93 N6        29.99R                  
BURLINGTON     CLEAR     55  52  88 S6        29.98R                  
$$
 
WAZ020-022-039-040-504-511-512-221200-
SOUTHWEST INTERIOR
  
CITY           SKY/WX    TMP DP  RH WIND       PRES   REMARKS
SHELTON        CLOUDY    57  53  86 W13       29.96F                  
OLYMPIA        CLEAR     55  50  83 SE6       29.99S                  
CHEHALIS       FAIR      57  55  94 S3        30.01S                  
KELSO          PTCLDY    58  55  90 CALM      30.02R                  
VANCOUVER      CLEAR     62  48  60 N5        29.99R                  
SCAPPOOSE, OR  CLEAR     56  51  84 CALM      29.99R                  
PORTLAND, OR   CLEAR     63  49  60 NW5       30.00R                  
$$
 
WAZ021-516-517-221200-
WASHINGTON COAST
  
CITY           SKY/WX    TMP DP  RH WIND       PRES   REMARKS
FORKS          CLEAR     49  46  90 CALM      30.01S                  
HOQUIAM        CLEAR     58  58 100 CALM      30.02S                  
ASTORIA, OR    MOCLDY    54  52  93 SE3       30.02S                  
$$
 
WAZ019-023-024-040-567>569-221200-
CASCADE MOUNTAINS AND COLUMBIA GORGE
  
CITY           SKY/WX    TMP DP  RH WIND       PRES   REMARKS
STAMPEDE PASS  PTCLDY    63  40  42 SW3       30.07F                  
TROUTDALE, OR  CLEAR     61  51  70 W3        29.99R                  
HOOD RIVER, OR MOSUNNY   63  52  67 CALM      29.94R                  
THE DALLES, OR CLEAR     71  55  56 NW16      29.88S                  
$$

WAZ026-027-041>044-520-521-221200-
EAST SLOPES
  
CITY           SKY/WX    TMP DP  RH WIND       PRES   REMARKS
OMAK           PTCLDY    59  38  45 N8        29.98S                  
WENATCHEE      PTCLDY    66  45  46 W10       29.94F                  
ELLENSBURG     PTCLDY    60  45  57 NE5       29.95F                  
YAKIMA         PTCLDY    58  46  64 W6        29.92S                  
SUNNYSIDE ARPT SUNNY     57  51  81 NE5       29.89                   
YAKIMA TC      PTSUNNY   64  35  34 N3        29.91S                  
$$

WAZ028-034-035-221200-
COLUMBIA BASIN
  
CITY           SKY/WX    TMP DP  RH WIND       PRES   REMARKS
EPHRATA        PTCLDY    70  35  27 N9        29.90F                  
MOSES LAKE     PTCLDY    71  38  29 N10       29.91F                  
PASCO          PTCLDY    67  51  56 CALM      29.85S                  
RICHLAND ARPT  MOSUNNY   71  48  44 W6        29.86                   
HERMISTON, OR  MOCLDY    65  46  50 S5        29.86S                  
$$

WAZ036>038-221200-
NORTHEAST WASHINGTON
  
CITY           SKY/WX    TMP DP  RH WIND       PRES   REMARKS
SPOKANE GEIGER MOCLDY    65  43  44 NE5       30.00S                  
SPOKANE FELTS  PTCLDY    60  49  66 W3        29.99S                  
FAIRCHILD AFB  PTCLDY    63  43  47 NE7       30.00R                  
COEURDALENE,ID CLEAR     60  46  59 NE9       30.01S                  
DEER PARK      CLEAR     63  42  46 NE9       29.99F                  
$$

WAZ029>033-221200-
SOUTHEAST WASHINGTON
  
CITY           SKY/WX    TMP DP  RH WIND       PRES   REMARKS
PULLMAN        MOCLDY    70  38  31 E10       29.97F                  
LEWISTON, ID   CLOUDY    71  44  37 E20       29.88F                  
WALLA WALLA    MOCLDY    72  43  35 S9        29.89R                  
PENDLETON, OR  MOCLDY    68  41  37 SE3       29.90F                  
$$